F6JSP-13 Weather Reports


Display with metric or nautical units.
time (UTC)temp
F
wind
direction
speed
MPH
gust
MPH
rain 1hr
in
rain 24hr
in
rain mn
in
humidity
%
barometer
mb
20260507163506 65 83 5.0 13.0 0.00 0.09 0.00 58 1010.5
20260507162505 65 65 3.0 10.0 0.00 0.09 0.00 59 1010.4
20260507162007 65 64 5.0 10.0 0.00 0.09 0.00 58 1010.5
20260507161006 64 69 6.0 13.0 0.00 0.09 0.00 58 1010.6
20260507160506 64 73 5.0 12.0 0.00 0.09 0.00 58 1010.6
20260507160006 64 72 5.0 12.0 0.00 0.09 0.00 58 1010.5
20260507155506 64 65 5.0 12.0 0.00 0.09 0.00 59 1010.6
20260507155006 64 57 6.0 12.0 0.00 0.09 0.00 59 1010.7
20260507154505 64 101 7.0 14.0 0.00 0.09 0.00 59 1010.6
20260507154008 65 92 6.0 12.0 0.00 0.09 0.00 60 1010.5
20260507153506 64 91 6.0 12.0 0.00 0.09 0.00 59 1010.6
20260507153006 64 89 6.0 10.0 0.00 0.09 0.00 59 1010.6
20260507152006 64 70 6.0 10.0 0.00 0.09 0.00 60 1010.8
20260507151506 63 82 6.0 9.0 0.00 0.09 0.00 59 1010.7
20260507151007 63 96 6.0 13.0 0.00 0.09 0.00 60 1010.8
20260507150506 63 78 8.0 13.0 0.00 0.09 0.00 58 1010.9
20260507150006 64 75 6.0 10.0 0.00 0.09 0.00 60 1011.0
20260507145505 64 107 5.0 8.0 0.00 0.09 0.00 59 1011.0
20260507145006 64 121 5.0 9.0 0.00 0.09 0.00 57 1011.1
20260507144506 64 79 6.0 9.0 0.00 0.09 0.00 56 1011.0
20260507144008 64 80 7.0 9.0 0.00 0.09 0.00 56 1011.1
20260507143506 64 73 4.0 8.0 0.00 0.09 0.00 58 1011.1
20260507143011 64 74 5.0 10.0 0.00 0.09 0.00 59 1011.1
20260507142506 64 76 6.0 10.0 0.00 0.09 0.00 59 1011.1
20260507141505 64 82 3.0 6.0 0.00 0.09 0.00 58 1011.2
20260507141007 64 115 6.0 14.0 0.00 0.09 0.00 57 1011.3
20260507140505 64 59 4.0 9.0 0.00 0.09 0.00 57 1011.2
20260507140006 64 98 4.0 9.0 0.00 0.09 0.00 58 1011.2
20260507135505 64 69 6.0 13.0 0.00 0.09 0.00 59 1011.3
20260507135005 63 71 6.0 13.0 0.00 0.09 0.00 59 1011.3
20260507134505 64 66 7.0 13.0 0.00 0.09 0.00 60 1011.4
20260507134006 64 48 4.0 9.0 0.00 0.09 0.00 59 1011.5
20260507133006 65 49 2.0 9.0 0.00 0.09 0.00 58 1011.5
20260507132505 65 62 2.0 6.0 0.00 0.09 0.00 61 1011.5
20260507131505 63 43 5.0 10.0 0.00 0.09 0.00 60 1011.7
20260507131006 63 74 5.0 7.0 0.00 0.09 0.00 61 1011.6
20260507130506 64 89 3.0 8.0 0.00 0.09 0.00 59 1011.7
20260507125505 63 59 4.0 8.0 0.00 0.09 0.00 61 1011.8
20260507125005 64 76 3.0 9.0 0.00 0.09 0.00 60 1011.8
20260507124504 63 80 7.0 12.0 0.00 0.09 0.00 61 1011.9
20260507123505 63 111 3.0 9.0 0.00 0.09 0.00 60 1011.9
20260507123005 63 79 6.0 12.0 0.00 0.09 0.00 58 1011.8
20260507122505 64 85 5.0 7.0 0.00 0.09 0.00 59 1011.9
20260507122005 63 63 2.0 8.0 0.00 0.09 0.00 61 1012.0
20260507121505 63 54 2.0 7.0 0.00 0.09 0.00 60 1012.2
20260507121005 62 59 4.0 9.0 0.00 0.09 0.00 62 1012.1
20260507120504 62 71 6.0 8.0 0.00 0.09 0.00 61 1012.2
20260507115504 63 64 3.0 8.0 0.00 0.09 0.00 61 1012.0
20260507115005 64 58 3.0 6.0 0.00 0.09 0.00 60 1012.1
20260507113505 62 152 4.0 10.0 0.00 0.09 0.00 60 1012.3
20260507112505 62 138 6.0 9.0 0.00 0.09 0.00 58 1012.2
20260507112005 63 95 2.0 12.0 0.00 0.09 0.00 61 1012.3
20260507111506 62 130 9.0 12.0 0.00 0.09 0.00 61 1012.3
20260507111005 61 192 3.0 12.0 0.00 0.09 0.00 62 1012.3
20260507110504 62 130 7.0 13.0 0.00 0.09 0.00 60 1012.6
20260507110005 63 138 4.0 12.0 0.00 0.09 0.00 58 1012.5
20260507105505 63 8 3.0 9.0 0.00 0.09 0.00 59 1012.5
20260507105005 61 119 4.0 13.0 0.00 0.09 0.00 62 1012.7
20260507104005 63 93 6.0 10.0 0.00 0.09 0.00 60 1012.6
20260507103505 64 18 3.0 5.0 0.00 0.09 0.00 60 1012.7
20260507103005 63 140 2.0 6.0 0.00 0.09 0.00 63 1012.5
20260507102505 61 64 3.0 10.0 0.00 0.09 0.00 61 1012.9
20260507102007 61 157 4.0 10.0 0.00 0.09 0.00 63 1012.8
20260507101507 61 157 4.0 12.0 0.00 0.09 0.00 63 1012.8
20260507100505 60 67 5.0 12.0 0.00 0.09 0.00 63 1012.9
20260507100005 60 126 8.0 12.0 0.00 0.09 0.00 65 1013.0
20260507095504 59 90 5.0 13.0 0.00 0.09 0.00 64 1012.8
20260507094505 59 104 9.0 13.0 0.00 0.09 0.00 65 1013.0
20260507093505 60 89 6.0 12.0 0.00 0.09 0.00 69 1012.7
20260507093006 59 77 6.0 13.0 0.00 0.09 0.00 69 1012.7
20260507092504 59 88 6.0 10.0 0.00 0.09 0.00 68 1012.8
20260507092005 60 80 3.0 10.0 0.00 0.09 0.00 69 1012.6
20260507091505 59 75 5.0 10.0 0.00 0.09 0.00 69 1013.0
20260507090504 58 92 7.0 12.0 0.00 0.09 0.00 70 1012.7
20260507090005 58 93 7.0 10.0 0.00 0.09 0.00 71 1012.8
20260507084505 58 71 7.0 10.0 0.00 0.10 0.00 72 1012.6
20260507084005 58 118 4.0 8.0 0.00 0.10 0.00 72 1012.6
20260507083505 57 110 9.0 15.0 0.00 0.10 0.00 71 1012.7
20260507083005 56 103 6.0 10.0 0.00 0.10 0.00 72 1012.6
20260507082504 57 81 9.0 14.0 0.00 0.10 0.00 71 1012.8
20260507082006 56 83 7.0 10.0 0.00 0.10 0.00 71 1012.8
20260507081505 56 81 7.0 10.0 0.00 0.11 0.00 72 1012.9
20260507081006 56 70 5.0 8.0 0.00 0.11 0.00 74 1012.8
20260507080006 55 109 5.0 9.0 0.00 0.11 0.00 76 1012.9
20260507075505 55 95 6.0 10.0 0.00 0.11 0.00 76 1012.7
20260507075005 55 94 5.0 10.0 0.00 0.12 0.00 77 1012.7
20260507074505 54 96 6.0 10.0 0.00 0.12 0.00 78 1012.8
20260507074006 55 103 6.0 9.0 0.00 0.13 0.00 77 1012.9
20260507073504 55 115 4.0 10.0 0.00 0.13 0.00 79 1012.7
20260507072505 53 82 7.0 9.0 0.00 0.13 0.00 81 1012.6
20260507072006 53 83 7.0 12.0 0.00 0.13 0.00 81 1012.6
20260507071505 53 91 4.0 8.0 0.00 0.13 0.00 83 1012.5
20260507071005 53 64 5.0 10.0 0.00 0.13 0.00 83 1012.6
20260507070504 52 107 5.0 8.0 0.00 0.13 0.00 84 1012.7
20260507070010 52 93 5.0 9.0 0.00 0.13 0.00 85 1012.6
20260507065505 52 83 6.0 9.0 0.00 0.14 0.00 86 1012.4
20260507065006 51 70 3.0 8.0 0.00 0.14 0.00 88 1012.5
20260507064505 51 87 3.0 5.0 0.00 0.14 0.00 89 1012.5
20260507064005 50 108 5.0 7.0 0.00 0.15 0.00 89 1012.6
20260507063504 50 83 3.0 7.0 0.00 0.15 0.00 91 1012.4
20260507062504 49 80 5.0 7.0 0.00 0.15 0.00 92 1012.5
20260507062005 49 73 5.0 9.0 0.00 0.15 0.00 92 1012.4
20260507061505 49 72 3.0 8.0 0.00 0.16 0.00 93 1012.5
20260507061005 49 78 3.0 6.0 0.00 0.16 0.00 93 1012.3
20260507060505 49 66 3.0 5.0 0.00 0.16 0.00 94 1012.5
20260507055504 49 68 2.0 5.0 0.00 0.16 0.00 94 1012.6
20260507054505 49 24 0.0 3.0 0.00 0.17 0.00 94 1012.5
20260507054005 49 77 3.0 6.0 0.00 0.17 0.00 94 1012.1
20260507053505 48 80 3.0 5.0 0.00 0.17 0.00 94 1012.3
20260507053005 48 80 2.0 5.0 0.00 0.18 0.00 94 1012.3
20260507052506 48 67 3.0 5.0 0.00 0.18 0.00 94 1012.2
20260507052006 48 74 2.0 7.0 0.00 0.19 0.00 95 1012.0
20260507051504 48 82 3.0 7.0 0.00 0.19 0.00 95 1012.1
20260507051005 48 81 3.0 6.0 0.00 0.19 0.00 95 1012.0
20260507050005 48 71 4.0 7.0 0.00 0.19 0.00 95 1012.1
20260507045006 48 83 4.0 7.0 0.00 0.19 0.00 95 1012.1
20260507044505 48 83 4.0 7.0 0.00 0.19 0.00 95 1012.1
20260507044005 48 75 2.0 6.0 0.00 0.19 0.00 95 1012.0
20260507043505 48 23 1.0 5.0 0.00 0.19 0.00 95 1012.0
20260507043005 48 54 1.0 5.0 0.00 0.19 0.00 95 1011.7
20260507042504 48 59 2.0 7.0 0.00 0.19 0.00 95 1011.8
20260507042005 48 75 3.0 8.0 0.00 0.19 0.00 95 1011.5
20260507041005 48 78 5.0 8.0 0.00 0.19 0.00 95 1011.6
20260507040505 48 75 3.0 6.0 0.00 0.19 0.00 95 1011.9
20260507040005 48 64 2.0 7.0 0.00 0.19 0.00 94 1011.7
20260507035505 48 73 5.0 9.0 0.00 0.19 0.00 94 1011.7
20260507034005 48 72 5.0 8.0 0.00 0.19 0.00 94 1011.8
20260507033505 48 66 2.0 7.0 0.00 0.19 0.00 93 1011.7
20260507033005 48 62 5.0 9.0 0.00 0.19 0.00 93 1011.8
20260507032505 48 72 5.0 8.0 0.00 0.19 0.00 93 1011.7
20260507032005 48 80 5.0 8.0 0.00 0.19 0.00 93 1011.5
20260507031504 47 81 5.0 8.0 0.00 0.19 0.00 94 1011.7
20260507031005 47 81 3.0 6.0 0.00 0.19 0.00 94 1011.6
20260507030005 47 102 0.0 3.0 0.00 0.19 0.00 93 1011.6
20260507025504 47 7 1.0 5.0 0.00 0.19 0.00 93 1011.7
20260507025005 48 77 2.0 6.0 0.00 0.19 0.00 92 1011.6
20260507024505 48 54 2.0 5.0 0.00 0.19 0.00 92 1011.5
20260507024005 48 58 1.0 5.0 0.00 0.19 0.00 91 1011.5
20260507023505 48 60 2.0 7.0 0.00 0.19 0.00 91 1011.4
20260507023005 49 65 4.0 7.0 0.00 0.19 0.00 91 1011.5
20260507022504 49 69 3.0 7.0 0.00 0.19 0.00 90 1011.3
20260507022006 49 63 1.0 6.0 0.00 0.19 0.00 90 1011.5
20260507021505 49 27 1.0 6.0 0.00 0.19 0.00 89 1011.6
20260507021005 50 52 2.0 7.0 0.00 0.19 0.00 89 1011.4
20260507020005 50 72 5.0 9.0 0.00 0.19 0.00 88 1011.5
20260507015505 50 63 4.0 7.0 0.00 0.19 0.00 88 1011.5
20260507015005 50 57 3.0 7.0 0.00 0.19 0.00 88 1011.5
20260507014505 50 68 2.0 7.0 0.00 0.19 0.00 88 1011.4
20260507013505 51 70 2.0 7.0 0.00 0.19 0.00 89 1011.6
20260507013005 51 53 2.0 6.0 0.00 0.19 0.00 89 1011.6
20260507012504 51 53 1.0 6.0 0.00 0.19 0.00 88 1011.4
20260507012005 51 59 2.0 7.0 0.00 0.19 0.00 88 1011.5
20260507011504 51 50 1.0 5.0 0.00 0.19 0.00 88 1011.4
20260507011005 51 51 2.0 6.0 0.00 0.19 0.00 88 1011.5
20260507010505 51 57 2.0 7.0 0.00 0.19 0.00 88 1011.4
20260507010005 51 52 2.0 5.0 0.00 0.19 0.00 88 1011.2
20260507005505 52 82 2.0 6.0 0.00 0.19 0.00 88 1011.5
20260507005005 52 55 2.0 5.0 0.00 0.19 0.00 88 1011.4
20260507004505 52 101 2.0 8.0 0.00 0.19 0.00 87 1011.5
20260507004005 52 78 5.0 9.0 0.00 0.19 0.00 87 1011.4
20260507003005 52 71 4.0 7.0 0.00 0.19 0.00 89 1011.5
20260507002504 52 61 3.0 7.0 0.00 0.19 0.00 89 1011.5
20260507002005 52 76 3.0 7.0 0.00 0.19 0.00 89 1011.6
20260507001505 52 71 4.0 7.0 0.00 0.19 0.00 90 1011.7
20260507001004 52 64 3.0 6.0 0.00 0.19 0.00 93 1011.6
20260507000004 53 27 1.0 5.0 0.00 0.19 0.00 96 1011.6
20260506235504 53 21 2.0 3.0 0.00 0.19 0.00 96 1011.6
20260506235005 53 16 2.0 5.0 0.00 0.19 0.00 96 1011.5
20260506234505 53 11 2.0 3.0 0.00 0.19 0.00 96 1011.5
20260506234004 53 14 2.0 3.0 0.00 0.19 0.00 97 1011.6
20260506233505 53 9 2.0 3.0 0.00 0.19 0.00 97 1011.6
20260506233006 53 24 1.0 3.0 0.00 0.19 0.00 97 1011.5
20260506232004 53 17 1.0 2.0 0.00 0.19 0.00 97 1011.7
20260506231504 53 65 0.0 1.0 0.00 0.19 0.00 97 1011.3
20260506231005 53 27 0.0 0.0 0.00 0.19 0.00 96 1011.4
20260506230504 53 27 0.0 1.0 0.00 0.19 0.00 96 1011.5
20260506230004 53 39 0.0 1.0 0.09 0.19 0.09 96 1011.5
20260506225005 53 108 1.0 2.0 0.00 0.19 0.09 96 1011.5
20260506224504 53 158 1.0 2.0 0.00 0.19 0.09 96 1011.4
20260506224004 53 39 0.0 1.0 0.00 0.19 0.09 96 1011.4
20260506223505 53 311 0.0 0.0 0.00 0.19 0.09 96 1011.5
20260506223005 53 311 0.0 0.0 0.00 1.10 0.09 96 1011.5
20260506222505 53 311 0.0 0.0 0.00 1.10 0.09 96 1011.5
20260506222005 53 311 0.0 1.0 0.00 1.10 0.09 96 1011.4
20260506221504 53 356 0.0 1.0 0.00 1.10 0.09 96 1011.4
20260506221004 53 336 0.0 1.0 0.00 1.10 0.09 95 1011.5
20260506220505 53 24 0.0 1.0 0.00 1.10 0.09 95 1011.3
20260506220004 53 91 0.0 1.0 0.00 1.01 0.00 95 1011.4
20260506215005 53 39 0.0 1.0 0.00 1.01 0.09 95 1011.4
20260506214004 53 316 0.0 1.0 0.00 1.01 0.09 94 1011.2
20260506213504 53 329 0.0 0.0 0.00 1.01 0.09 94 1011.4
20260506213005 53 329 0.0 1.0 0.00 1.01 0.09 94 1011.3
20260506212504 53 314 1.0 2.0 0.00 1.01 0.09 94 1011.2
20260506212005 53 314 1.0 2.0 0.00 1.01 0.09 93 1011.1
20260506211504 53 158 0.0 0.0 0.00 1.01 0.09 93 1011.1
20260506211005 53 158 0.0 0.0 0.00 1.01 0.09 93 1011.0
20260506210504 53 158 0.0 1.0 0.00 1.01 0.09 93 1011.1
20260506210005 53 57 0.0 1.0 0.00 1.02 0.09 92 1011.2
20260506205005 53 106 0.0 1.0 0.00 1.03 0.09 92 1011.1
20260506204504 53 105 0.0 1.0 0.00 1.04 0.09 91 1011.2
20260506203504 54 342 0.0 1.0 0.00 1.05 0.09 91 1010.9
20260506203004 54 311 0.0 1.0 0.00 1.05 0.09 90 1011.0
20260506202505 54 316 1.0 2.0 0.00 1.05 0.09 90 1011.0
20260506202005 54 232 0.0 1.0 0.00 1.06 0.09 89 1010.9
20260506201505 54 2 0.0 0.0 0.00 1.06 0.09 89 1010.8
20260506201005 54 2 0.0 1.0 0.00 1.06 0.09 89 1010.7
20260506200506 54 356 0.0 1.0 0.00 1.06 0.09 89 1010.7
20260506200005 54 2 0.0 1.0 0.00 1.07 0.09 88 1010.7
20260506195505 54 70 0.0 3.0 0.00 1.07 0.09 88 1010.7
20260506195006 55 78 0.0 3.0 0.00 1.07 0.09 88 1010.6
20260506194505 55 73 2.0 3.0 0.00 1.09 0.09 87 1010.5
20260506194006 55 69 2.0 5.0 0.00 1.09 0.09 86 1010.5
20260506193505 55 66 2.0 3.0 0.00 1.11 0.09 86 1010.3
20260506193005 55 72 2.0 5.0 0.00 1.12 0.09 85 1010.4
20260506192005 55 61 1.0 5.0 0.00 1.15 0.09 84 1010.4
20260506191505 55 64 2.0 5.0 0.00 1.16 0.09 83 1010.2
20260506191006 55 63 2.0 6.0 0.00 1.17 0.09 82 1010.3
20260506190505 55 63 3.0 6.0 0.00 1.17 0.09 82 1010.1
20260506190006 55 65 5.0 6.0 0.00 1.17 0.09 81 1010.2
20260506185006 56 76 3.0 7.0 0.00 1.18 0.09 81 1010.1
20260506184506 56 67 4.0 7.0 0.00 1.21 0.09 80 1010.0
20260506184006 56 45 2.0 8.0 0.00 1.23 0.09 79 1010.0
20260506183505 57 51 3.0 7.0 0.00 1.25 0.09 78 1010.0
20260506183006 58 68 2.0 6.0 0.00 1.26 0.09 77 1010.0
20260506182505 58 19 0.0 2.0 0.00 1.26 0.09 75 1009.8
20260506182006 58 10 0.0 2.0 0.00 1.26 0.09 72 1009.9
20260506181505 58 10 0.0 2.0 0.00 1.26 0.09 72 1009.9
20260506180505 58 348 1.0 2.0 0.00 1.26 0.09 70 1009.8
20260506175505 58 4 0.0 2.0 0.00 1.26 0.09 70 1009.8
20260506175005 58 10 1.0 2.0 0.00 1.26 0.09 70 1009.7
20260506174505 58 11 1.0 2.0 0.00 1.26 0.09 70 1009.5
20260506174006 59 56 1.0 3.0 0.00 1.26 0.09 68 1009.5
20260506173505 58 349 1.0 2.0 0.00 1.26 0.09 67 1009.6
20260506173005 59 40 1.0 2.0 0.00 1.26 0.09 67 1009.5
20260506172505 59 25 1.0 3.0 0.00 1.27 0.09 68 1009.6
20260506172006 59 38 1.0 3.0 0.00 1.27 0.09 67 1009.4
20260506171505 59 26 2.0 6.0 0.00 1.27 0.09 66 1009.6
20260506170505 59 13 3.0 6.0 0.00 1.27 0.09 66 1009.5
20260506170005 59 45 1.0 2.0 0.00 1.27 0.09 66 1009.5
20260506165505 59 95 1.0 6.0 0.00 1.27 0.09 64 1009.4
20260506165005 59 16 2.0 6.0 0.00 1.27 0.09 66 1009.4